Time,TemperatureF,DewpointF,PressureIn,WindDirection,WindDirectionDegrees,WindSpeedMPH,WindSpeedGustMPH,Humidity,HourlyPrecipIn,Conditions,Clouds,dailyrainin,SoftwareType,DateUTC
2013-07-01 00:00:00,60.3,51.2,30.05,North,355,0.0,0.0,72,0.00,,,0.00,Wunderground v.1.15,2013-07-01 05:00:00,
2013-07-01 00:06:00,60.6,51.5,30.05,North,5,0.0,0.0,72,0.00,,,0.00,Wunderground v.1.15,2013-07-01 05:06:00,
2013-07-01 00:12:00,60.5,51.0,30.05,NNE,25,0.0,0.0,71,0.00,,,0.00,Wunderground v.1.15,2013-07-01 05:12:00,
2013-07-01 00:18:00,60.5,51.4,30.05,North,11,0.0,0.0,72,0.00,,,0.00,Wunderground v.1.15,2013-07-01 05:18:00,
2013-07-01 00:24:00,60.3,51.6,30.05,NNE,13,0.0,0.0,73,0.00,,,0.00,Wunderground v.1.15,2013-07-01 05:24:00,
2013-07-01 00:30:00,60.0,51.3,30.05,North,360,0.0,0.0,73,0.00,,,0.00,Wunderground v.1.15,2013-07-01 05:30:00,
2013-07-01 00:35:00,59.8,51.9,30.05,NNE,12,0.0,0.0,75,0.00,,,0.00,Wunderground v.1.15,2013-07-01 05:35:00,
2013-07-01 00:41:00,59.7,51.4,30.05,North,350,0.0,0.0,74,0.00,,,0.00,Wunderground v.1.15,2013-07-01 05:41:00,
2013-07-01 00:47:00,59.4,51.5,30.05,North,355,0.0,0.0,75,0.00,,,0.00,Wunderground v.1.15,2013-07-01 05:47:00,
2013-07-01 00:53:00,59.2,51.3,30.05,North,5,0.0,0.0,75,0.00,,,0.00,Wunderground v.1.15,2013-07-01 05:53:00,
2013-07-01 00:58:00,59.1,51.2,30.05,North,360,0.0,0.0,75,0.00,,,0.00,Wunderground v.1.15,2013-07-01 05:58:00,
2013-07-01 01:04:00,59.0,51.4,30.06,North,5,0.0,0.0,76,0.00,,,0.00,Wunderground v.1.15,2013-07-01 06:04:00,
2013-07-01 01:10:00,58.7,51.9,30.06,North,350,0.0,0.0,78,0.00,,,0.00,Wunderground v.1.15,2013-07-01 06:10:00,
2013-07-01 01:16:00,58.3,51.5,30.06,North,355,0.0,0.0,78,0.00,,,0.00,Wunderground v.1.15,2013-07-01 06:16:00,
2013-07-01 01:21:00,58.1,50.9,30.06,NNE,25,0.0,0.0,77,0.00,,,0.00,Wunderground v.1.15,2013-07-01 06:21:00,
2013-07-01 01:27:00,58.0,51.2,30.06,NNE,12,0.0,0.0,78,0.00,,,0.00,Wunderground v.1.15,2013-07-01 06:27:00,
2013-07-01 01:32:00,57.7,51.2,30.06,NNE,13,0.0,0.0,79,0.00,,,0.00,Wunderground v.1.15,2013-07-01 06:32:00,
2013-07-01 01:38:00,57.3,50.8,30.06,NNE,13,0.0,0.0,79,0.00,,,0.00,Wunderground v.1.15,2013-07-01 06:38:00,
2013-07-01 01:44:00,57.1,51.0,30.06,North,360,0.0,0.0,80,0.00,,,0.00,Wunderground v.1.15,2013-07-01 06:44:00,
2013-07-01 01:50:00,56.9,50.8,30.06,North,355,0.0,0.0,80,0.00,,,0.00,Wunderground v.1.15,2013-07-01 06:50:00,
2013-07-01 01:56:00,57.0,50.5,30.06,North,360,0.0,0.0,79,0.00,,,0.00,Wunderground v.1.15,2013-07-01 06:56:00,
2013-07-01 02:01:00,57.1,50.6,30.06,NNE,14,0.0,0.0,79,0.00,,,0.00,Wunderground v.1.15,2013-07-01 07:01:00,
2013-07-01 02:07:00,57.2,50.7,30.06,NNE,16,0.0,0.0,79,0.00,,,0.00,Wunderground v.1.15,2013-07-01 07:07:00,
2013-07-01 02:12:00,57.3,50.8,30.06,NNE,23,0.0,0.0,79,0.00,,,0.00,Wunderground v.1.15,2013-07-01 07:12:00,
2013-07-01 02:18:00,57.1,50.6,30.06,NNW,333,0.0,0.0,79,0.00,,,0.00,Wunderground v.1.15,2013-07-01 07:18:00,
2013-07-01 02:23:00,56.8,50.7,30.06,North,11,0.0,0.0,80,0.00,,,0.00,Wunderground v.1.15,2013-07-01 07:23:00,
2013-07-01 02:29:00,56.6,50.5,30.07,North,5,0.0,0.0,80,0.00,,,0.00,Wunderground v.1.15,2013-07-01 07:29:00,
2013-07-01 02:35:00,56.6,50.5,30.06,NNW,346,0.0,0.0,80,0.00,,,0.00,Wunderground v.1.15,2013-07-01 07:35:00,
2013-07-01 02:40:00,56.5,50.4,30.06,North,5,0.0,0.0,80,0.00,,,0.00,Wunderground v.1.15,2013-07-01 07:40:00,
2013-07-01 02:45:00,56.4,50.3,30.06,North,5,0.0,0.0,80,0.00,,,0.00,Wunderground v.1.15,2013-07-01 07:45:00,
2013-07-01 02:51:00,56.4,50.3,30.06,NNE,17,0.0,0.0,80,0.00,,,0.00,Wunderground v.1.15,2013-07-01 07:51:00,
2013-07-01 02:57:00,56.4,50.3,30.06,NNW,336,0.0,0.0,80,0.00,,,0.00,Wunderground v.1.15,2013-07-01 07:57:00,
2013-07-01 03:03:00,56.4,50.3,30.06,NNE,19,0.0,0.0,80,0.00,,,0.00,Wunderground v.1.15,2013-07-01 08:03:00,
2013-07-01 03:09:00,56.2,50.4,30.07,NE,36,0.0,0.0,81,0.00,,,0.00,Wunderground v.1.15,2013-07-01 08:09:00,
2013-07-01 03:15:00,56.0,50.3,30.07,NNE,28,0.0,0.0,81,0.00,,,0.00,Wunderground v.1.15,2013-07-01 08:15:00,
2013-07-01 03:21:00,56.0,50.3,30.07,NNE,17,0.0,0.0,81,0.00,,,0.00,Wunderground v.1.15,2013-07-01 08:21:00,
2013-07-01 03:27:00,55.9,50.2,30.07,North,9,0.0,0.0,81,0.00,,,0.00,Wunderground v.1.15,2013-07-01 08:27:00,
2013-07-01 03:33:00,55.9,50.2,30.07,NNE,12,0.0,0.0,81,0.00,,,0.00,Wunderground v.1.15,2013-07-01 08:33:00,
2013-07-01 03:38:00,55.8,50.1,30.07,NNW,346,0.0,0.0,81,0.00,,,0.00,Wunderground v.1.15,2013-07-01 08:38:00,
2013-07-01 03:44:00,55.9,50.2,30.07,North,360,0.0,0.0,81,0.00,,,0.00,Wunderground v.1.15,2013-07-01 08:44:00,
2013-07-01 03:50:00,56.2,50.1,30.07,North,360,0.0,0.0,80,0.00,,,0.00,Wunderground v.1.15,2013-07-01 08:50:00,
2013-07-01 03:55:00,56.2,50.1,30.07,North,350,0.0,0.0,80,0.00,,,0.00,Wunderground v.1.15,2013-07-01 08:55:00,
2013-07-01 04:00:00,56.1,50.0,30.07,NNE,14,0.0,0.0,80,0.00,,,0.00,Wunderground v.1.15,2013-07-01 09:00:00,
2013-07-01 04:06:00,55.8,50.1,30.07,North,5,0.0,0.0,81,0.00,,,0.00,Wunderground v.1.15,2013-07-01 09:06:00,
2013-07-01 04:12:00,55.4,50.0,30.08,North,5,0.0,0.0,82,0.00,,,0.00,Wunderground v.1.15,2013-07-01 09:12:00,
2013-07-01 04:18:00,55.0,49.9,30.08,NNE,30,0.0,0.0,83,0.00,,,0.00,Wunderground v.1.15,2013-07-01 09:18:00,
2013-07-01 04:23:00,54.9,49.8,30.08,NNE,19,0.0,0.0,83,0.00,,,0.00,Wunderground v.1.15,2013-07-01 09:23:00,
2013-07-01 04:29:00,54.6,49.9,30.08,North,355,0.0,0.0,84,0.00,,,0.00,Wunderground v.1.15,2013-07-01 09:29:00,
2013-07-01 04:34:00,54.4,49.7,30.08,NNW,342,0.0,0.0,84,0.00,,,0.00,Wunderground v.1.15,2013-07-01 09:34:00,
2013-07-01 04:40:00,54.2,49.8,30.08,NNE,13,0.0,0.0,85,0.00,,,0.00,Wunderground v.1.15,2013-07-01 09:40:00,
2013-07-01 04:46:00,54.1,49.7,30.08,NNE,13,0.0,0.0,85,0.00,,,0.00,Wunderground v.1.15,2013-07-01 09:46:00,
2013-07-01 04:52:00,54.1,49.7,30.09,NNE,13,0.0,0.0,85,0.00,,,0.00,Wunderground v.1.15,2013-07-01 09:52:00,
2013-07-01 04:57:00,54.0,49.6,30.09,NNE,13,0.0,0.0,85,0.00,,,0.00,Wunderground v.1.15,2013-07-01 09:57:00,
2013-07-01 05:02:00,53.7,49.6,30.09,NNE,13,0.0,0.0,86,0.00,,,0.00,Wunderground v.1.15,2013-07-01 10:02:00,
2013-07-01 05:08:00,53.3,49.5,30.09,NNE,13,0.0,0.0,87,0.00,,,0.00,Wunderground v.1.15,2013-07-01 10:08:00,
2013-07-01 05:13:00,53.1,49.3,30.09,North,349,0.0,0.0,87,0.00,,,0.00,Wunderground v.1.15,2013-07-01 10:13:00,
2013-07-01 05:19:00,53.0,49.2,30.10,North,360,0.0,0.0,87,0.00,,,0.00,Wunderground v.1.15,2013-07-01 10:19:00,
2013-07-01 05:25:00,53.1,49.3,30.10,North,360,0.0,0.0,87,0.00,,,0.00,Wunderground v.1.15,2013-07-01 10:25:00,
2013-07-01 05:31:00,53.6,49.5,30.10,North,350,0.0,0.0,86,0.00,,,0.00,Wunderground v.1.15,2013-07-01 10:31:00,
2013-07-01 05:36:00,53.9,49.5,30.10,North,5,0.0,0.0,85,0.00,,,0.00,Wunderground v.1.15,2013-07-01 10:36:00,
2013-07-01 05:42:00,53.9,49.8,30.10,North,9,0.0,0.0,86,0.00,,,0.00,Wunderground v.1.15,2013-07-01 10:42:00,
2013-07-01 05:48:00,53.9,49.8,30.10,North,5,0.0,0.0,86,0.00,,,0.00,Wunderground v.1.15,2013-07-01 10:48:00,
2013-07-01 05:54:00,53.7,49.6,30.10,North,355,0.0,0.0,86,0.00,,,0.00,Wunderground v.1.15,2013-07-01 10:54:00,
2013-07-01 05:59:00,53.8,49.7,30.10,North,5,0.0,0.0,86,0.00,,,0.00,Wunderground v.1.15,2013-07-01 10:59:00,
2013-07-01 06:05:00,54.0,49.9,30.10,NNE,30,0.0,0.0,86,0.00,,,0.00,Wunderground v.1.15,2013-07-01 11:05:00,
2013-07-01 06:11:00,53.9,49.8,30.11,North,11,0.0,0.0,86,0.00,,,0.00,Wunderground v.1.15,2013-07-01 11:11:00,
2013-07-01 06:17:00,53.7,49.9,30.11,NNE,22,0.0,0.0,87,0.00,,,0.00,Wunderground v.1.15,2013-07-01 11:17:00,
2013-07-01 06:23:00,53.4,49.9,30.11,North,9,0.0,0.0,88,0.00,,,0.00,Wunderground v.1.15,2013-07-01 11:23:00,
2013-07-01 06:28:00,53.3,50.1,30.11,NNW,340,0.0,0.0,89,0.00,,,0.00,Wunderground v.1.15,2013-07-01 11:28:00,
2013-07-01 06:34:00,53.2,50.0,30.11,NNE,20,0.0,0.0,89,0.00,,,0.00,Wunderground v.1.15,2013-07-01 11:34:00,
2013-07-01 06:40:00,53.6,50.1,30.11,NE,34,0.0,0.0,88,0.00,,,0.00,Wunderground v.1.15,2013-07-01 11:40:00,
2013-07-01 06:46:00,54.1,50.6,30.12,NNW,344,0.0,0.0,88,0.00,,,0.00,Wunderground v.1.15,2013-07-01 11:46:00,
2013-07-01 06:52:00,54.4,50.9,30.12,NW,318,0.0,0.0,88,0.00,,,0.00,Wunderground v.1.15,2013-07-01 11:52:00,
2013-07-01 06:57:00,54.7,50.9,30.12,North,360,0.0,0.0,87,0.00,,,0.00,Wunderground v.1.15,2013-07-01 11:57:00,
2013-07-01 07:03:00,55.3,51.5,30.12,North,10,0.0,0.0,87,0.00,,,0.00,Wunderground v.1.15,2013-07-01 12:03:00,
2013-07-01 07:08:00,56.0,51.9,30.12,North,360,0.0,0.0,86,0.00,,,0.00,Wunderground v.1.15,2013-07-01 12:08:00,
2013-07-01 07:13:00,56.6,52.1,30.12,North,360,0.0,0.0,85,0.00,,,0.00,Wunderground v.1.15,2013-07-01 12:13:00,
2013-07-01 07:19:00,57.3,52.2,30.12,North,360,0.0,0.0,83,0.00,,,0.00,Wunderground v.1.15,2013-07-01 12:19:00,
2013-07-01 07:25:00,57.8,52.7,30.12,North,355,0.0,0.0,83,0.00,,,0.00,Wunderground v.1.15,2013-07-01 12:25:00,
2013-07-01 07:31:00,58.4,52.9,30.12,NNE,18,0.0,0.0,82,0.00,,,0.00,Wunderground v.1.15,2013-07-01 12:31:00,
2013-07-01 07:37:00,58.9,53.1,30.12,North,9,0.0,0.0,81,0.00,,,0.00,Wunderground v.1.15,2013-07-01 12:37:00,
2013-07-01 07:42:00,59.2,53.0,30.12,NNE,14,0.0,0.0,80,0.00,,,0.00,Wunderground v.1.15,2013-07-01 12:42:00,
2013-07-01 07:48:00,59.6,53.4,30.12,North,360,0.0,0.0,80,0.00,,,0.00,Wunderground v.1.15,2013-07-01 12:48:00,
2013-07-01 07:54:00,59.9,53.4,30.12,North,11,0.0,0.0,79,0.00,,,0.00,Wunderground v.1.15,2013-07-01 12:54:00,
2013-07-01 08:00:00,60.3,53.8,30.12,North,11,0.0,0.0,79,0.00,,,0.00,Wunderground v.1.15,2013-07-01 13:00:00,
2013-07-01 08:06:00,60.9,54.3,30.12,North,11,0.0,0.0,79,0.00,,,0.00,Wunderground v.1.15,2013-07-01 13:06:00,
2013-07-01 08:11:00,61.5,54.9,30.12,NNE,19,0.0,0.0,79,0.00,,,0.00,Wunderground v.1.15,2013-07-01 13:11:00,
2013-07-01 08:17:00,62.1,54.8,30.12,NNE,19,0.0,0.0,77,0.00,,,0.00,Wunderground v.1.15,2013-07-01 13:17:00,
2013-07-01 08:23:00,62.5,55.9,30.12,NE,52,0.0,0.0,79,0.00,,,0.00,Wunderground v.1.15,2013-07-01 13:23:00,
2013-07-01 08:29:00,63.2,55.5,30.12,NE,44,0.0,0.0,76,0.00,,,0.00,Wunderground v.1.15,2013-07-01 13:29:00,
2013-07-01 08:34:00,63.8,56.1,30.12,NE,40,0.0,0.0,76,0.00,,,0.00,Wunderground v.1.15,2013-07-01 13:34:00,
2013-07-01 08:40:00,64.3,55.8,30.12,NNE,26,0.0,0.0,74,0.00,,,0.00,Wunderground v.1.15,2013-07-01 13:40:00,
2013-07-01 08:46:00,64.9,56.8,30.12,NE,35,0.0,0.0,75,0.00,,,0.00,Wunderground v.1.15,2013-07-01 13:46:00,
2013-07-01 08:51:00,65.4,56.1,30.12,NE,44,0.0,0.0,72,0.00,,,0.00,Wunderground v.1.15,2013-07-01 13:51:00,
2013-07-01 08:57:00,66.2,56.9,30.12,NE,55,0.0,0.0,72,0.00,,,0.00,Wunderground v.1.15,2013-07-01 13:57:00,
2013-07-01 09:03:00,67.0,56.5,30.12,NE,51,0.0,0.0,69,0.00,,,0.00,Wunderground v.1.15,2013-07-01 14:03:00,
2013-07-01 09:08:00,67.9,57.4,30.13,NE,56,0.0,0.0,69,0.00,,,0.00,Wunderground v.1.15,2013-07-01 14:08:00,
2013-07-01 09:14:00,68.7,56.0,30.13,NE,46,0.0,0.0,64,0.00,,,0.00,Wunderground v.1.15,2013-07-01 14:14:00,
2013-07-01 09:20:00,69.3,56.2,30.13,NE,38,0.0,0.0,63,0.00,,,0.00,Wunderground v.1.15,2013-07-01 14:20:00,
2013-07-01 09:26:00,70.0,54.5,30.13,ENE,67,0.0,0.0,58,0.00,,,0.00,Wunderground v.1.15,2013-07-01 14:26:00,
2013-07-01 09:32:00,70.8,54.8,30.13,NE,54,0.0,0.0,57,0.00,,,0.00,Wunderground v.1.15,2013-07-01 14:32:00,
2013-07-01 09:37:00,71.1,55.6,30.12,NE,50,0.0,0.0,58,0.00,,,0.00,Wunderground v.1.15,2013-07-01 14:37:00,
2013-07-01 09:43:00,71.4,56.3,30.12,NE,51,0.0,0.0,59,0.00,,,0.00,Wunderground v.1.15,2013-07-01 14:43:00,
2013-07-01 09:49:00,71.7,55.7,30.12,NE,42,0.0,0.0,57,0.00,,,0.00,Wunderground v.1.15,2013-07-01 14:49:00,
2013-07-01 09:54:00,72.1,55.0,30.12,SE,124,0.0,0.0,55,0.00,,,0.00,Wunderground v.1.15,2013-07-01 14:54:00,
2013-07-01 10:00:00,72.7,54.6,30.12,ENE,59,0.0,0.0,53,0.00,,,0.00,Wunderground v.1.15,2013-07-01 15:00:00,
2013-07-01 10:06:00,72.9,56.8,30.13,NNE,28,0.0,0.0,57,0.00,,,0.00,Wunderground v.1.15,2013-07-01 15:06:00,
2013-07-01 10:12:00,73.0,55.4,30.12,East,100,0.0,0.0,54,0.00,,,0.00,Wunderground v.1.15,2013-07-01 15:12:00,
2013-07-01 10:18:00,73.4,54.7,30.12,NE,49,0.0,0.0,52,0.00,,,0.00,Wunderground v.1.15,2013-07-01 15:18:00,
2013-07-01 10:23:00,73.5,55.8,30.12,ESE,105,0.0,0.0,54,0.00,,,0.00,Wunderground v.1.15,2013-07-01 15:23:00,
2013-07-01 10:29:00,73.9,56.2,30.13,NE,51,0.0,0.0,54,0.00,,,0.00,Wunderground v.1.15,2013-07-01 15:29:00,
2013-07-01 10:35:00,74.1,55.9,30.12,NE,38,0.0,0.0,53,0.00,,,0.00,Wunderground v.1.15,2013-07-01 15:35:00,
2013-07-01 10:41:00,74.4,55.1,30.12,East,90,0.0,0.0,51,0.00,,,0.00,Wunderground v.1.15,2013-07-01 15:41:00,
2013-07-01 10:46:00,74.8,56.0,30.12,ESE,116,0.0,0.0,52,0.00,,,0.00,Wunderground v.1.15,2013-07-01 15:46:00,
2013-07-01 10:52:00,75.0,57.7,30.12,ENE,57,0.0,0.0,55,0.00,,,0.00,Wunderground v.1.15,2013-07-01 15:52:00,
2013-07-01 10:57:00,75.5,55.6,30.12,ENE,76,0.0,0.0,50,0.00,,,0.00,Wunderground v.1.15,2013-07-01 15:57:00,
2013-07-01 11:02:00,75.6,55.1,30.12,East,82,0.0,0.0,49,0.00,,,0.00,Wunderground v.1.15,2013-07-01 16:02:00,
2013-07-01 11:08:00,75.8,53.5,30.12,ENE,58,0.0,0.0,46,0.00,,,0.00,Wunderground v.1.15,2013-07-01 16:08:00,
2013-07-01 11:14:00,75.4,53.8,30.12,East,92,0.0,0.0,47,0.00,,,0.00,Wunderground v.1.15,2013-07-01 16:14:00,
2013-07-01 11:20:00,75.6,53.9,30.12,ENE,74,0.0,0.0,47,0.00,,,0.00,Wunderground v.1.15,2013-07-01 16:20:00,
2013-07-01 11:25:00,75.9,55.9,30.12,East,88,0.0,0.0,50,0.00,,,0.00,Wunderground v.1.15,2013-07-01 16:25:00,
2013-07-01 11:30:00,76.4,54.1,30.12,ENE,59,0.0,0.0,46,0.00,,,0.00,Wunderground v.1.15,2013-07-01 16:30:00,
2013-07-01 11:36:00,76.4,54.7,30.12,SE,131,0.0,0.0,47,0.00,,,0.00,Wunderground v.1.15,2013-07-01 16:36:00,
2013-07-01 11:42:00,76.7,55.5,30.12,ESE,109,0.0,0.0,48,0.00,,,0.00,Wunderground v.1.15,2013-07-01 16:42:00,
2013-07-01 11:48:00,77.0,55.8,30.12,ENE,77,0.0,0.0,48,0.00,,,0.00,Wunderground v.1.15,2013-07-01 16:48:00,
2013-07-01 11:54:00,77.2,55.4,30.12,ESE,109,0.0,0.0,47,0.00,,,0.00,Wunderground v.1.15,2013-07-01 16:54:00,
2013-07-01 11:59:00,77.3,56.6,30.12,ENE,62,0.0,0.0,49,0.00,,,0.00,Wunderground v.1.15,2013-07-01 16:59:00,
2013-07-01 12:05:00,76.6,56.0,30.12,North,5,0.0,0.0,49,0.00,,,0.00,Wunderground v.1.15,2013-07-01 17:05:00,
2013-07-01 12:11:00,76.3,56.8,30.11,NNE,12,0.0,0.0,51,0.00,,,0.00,Wunderground v.1.15,2013-07-01 17:11:00,
2013-07-01 12:16:00,76.5,55.9,30.12,NE,54,0.0,0.0,49,0.00,,,0.00,Wunderground v.1.15,2013-07-01 17:16:00,
2013-07-01 12:21:00,76.6,55.4,30.11,ESE,111,0.0,0.0,48,0.00,,,0.00,Wunderground v.1.15,2013-07-01 17:21:00,
2013-07-01 12:27:00,77.2,57.1,30.11,NE,51,0.0,0.0,50,0.00,,,0.00,Wunderground v.1.15,2013-07-01 17:27:00,
2013-07-01 12:33:00,77.4,57.3,30.11,ENE,74,0.0,0.0,50,0.00,,,0.00,Wunderground v.1.15,2013-07-01 17:33:00,
2013-07-01 12:39:00,77.4,55.6,30.11,ENE,65,0.0,0.0,47,0.00,,,0.00,Wunderground v.1.15,2013-07-01 17:39:00,
2013-07-01 12:44:00,77.3,57.2,30.11,East,83,0.0,0.0,50,0.00,,,0.00,Wunderground v.1.15,2013-07-01 17:44:00,
2013-07-01 12:50:00,77.5,56.8,30.11,ESE,107,0.0,0.0,49,0.00,,,0.00,Wunderground v.1.15,2013-07-01 17:50:00,
2013-07-01 12:56:00,77.6,57.5,30.11,NE,43,0.0,0.0,50,0.00,,,0.00,Wunderground v.1.15,2013-07-01 17:56:00,
2013-07-01 13:01:00,77.4,57.3,30.10,NNE,28,0.0,0.0,50,0.00,,,0.00,Wunderground v.1.15,2013-07-01 18:01:00,
2013-07-01 13:07:00,77.4,56.2,30.10,ENE,60,0.0,0.0,48,0.00,,,0.00,Wunderground v.1.15,2013-07-01 18:07:00,
2013-07-01 13:12:00,77.7,58.1,30.10,ENE,74,0.0,0.0,51,0.00,,,0.00,Wunderground v.1.15,2013-07-01 18:12:00,
2013-07-01 13:18:00,78.4,54.7,30.10,South,185,0.0,0.0,44,0.00,,,0.00,Wunderground v.1.15,2013-07-01 18:18:00,
2013-07-01 13:24:00,78.0,56.7,30.10,NNE,27,0.0,0.0,48,0.00,,,0.00,Wunderground v.1.15,2013-07-01 18:24:00,
2013-07-01 13:30:00,77.3,55.5,30.09,ENE,68,0.0,0.0,47,0.00,,,0.00,Wunderground v.1.15,2013-07-01 18:30:00,
2013-07-01 13:35:00,77.5,55.1,30.09,NW,306,0.0,0.0,46,0.00,,,0.00,Wunderground v.1.15,2013-07-01 18:35:00,
2013-07-01 13:41:00,78.1,55.6,30.09,NNE,33,0.0,0.0,46,0.00,,,0.00,Wunderground v.1.15,2013-07-01 18:41:00,
2013-07-01 13:47:00,78.6,56.7,30.09,NE,47,0.0,0.0,47,0.00,,,0.00,Wunderground v.1.15,2013-07-01 18:47:00,
2013-07-01 13:53:00,78.5,55.4,30.09,NE,43,0.0,0.0,45,0.00,,,0.00,Wunderground v.1.15,2013-07-01 18:53:00,
2013-07-01 13:58:00,78.6,57.3,30.09,North,355,0.0,0.0,48,0.00,,,0.00,Wunderground v.1.15,2013-07-01 18:58:00,
2013-07-01 14:04:00,79.1,55.9,30.09,North,355,0.0,0.0,45,0.00,,,0.00,Wunderground v.1.15,2013-07-01 19:04:00,
2013-07-01 14:10:00,79.3,55.5,30.09,North,9,0.0,0.0,44,0.00,,,0.00,Wunderground v.1.15,2013-07-01 19:10:00,
2013-07-01 14:15:00,79.2,56.0,30.09,ENE,59,0.0,0.0,45,0.00,,,0.00,Wunderground v.1.15,2013-07-01 19:15:00,
2013-07-01 14:21:00,79.5,56.3,30.08,NNE,30,0.0,0.0,45,0.00,,,0.00,Wunderground v.1.15,2013-07-01 19:21:00,
2013-07-01 14:27:00,80.0,59.1,30.08,ENE,66,0.0,0.0,49,0.00,,,0.00,Wunderground v.1.15,2013-07-01 19:27:00,
2013-07-01 14:33:00,79.9,55.4,30.08,NE,48,0.0,0.0,43,0.00,,,0.00,Wunderground v.1.15,2013-07-01 19:33:00,
2013-07-01 14:39:00,79.1,54.7,30.08,NNE,13,0.0,0.0,43,0.00,,,0.00,Wunderground v.1.15,2013-07-01 19:39:00,
2013-07-01 14:44:00,78.6,57.8,30.08,East,82,0.0,0.0,49,0.00,,,0.00,Wunderground v.1.15,2013-07-01 19:44:00,
2013-07-01 14:50:00,79.2,57.8,30.08,NE,41,0.0,0.0,48,0.00,,,0.00,Wunderground v.1.15,2013-07-01 19:50:00,
2013-07-01 14:56:00,79.7,53.9,30.08,ESE,109,0.0,0.0,41,0.00,,,0.00,Wunderground v.1.15,2013-07-01 19:56:00,
2013-07-01 15:01:00,80.0,57.4,30.08,NE,47,0.0,0.0,46,0.00,,,0.00,Wunderground v.1.15,2013-07-01 20:01:00,
2013-07-01 15:06:00,80.2,56.9,30.07,NE,46,0.0,0.0,45,0.00,,,0.00,Wunderground v.1.15,2013-07-01 20:06:00,
2013-07-01 15:12:00,79.9,56.0,30.07,NNE,22,0.0,0.0,44,0.00,,,0.00,Wunderground v.1.15,2013-07-01 20:12:00,
2013-07-01 15:18:00,79.8,57.8,30.07,North,5,0.0,0.0,47,0.00,,,0.00,Wunderground v.1.15,2013-07-01 20:18:00,
2013-07-01 15:24:00,80.1,55.6,30.07,NE,48,0.0,0.0,43,0.00,,,0.00,Wunderground v.1.15,2013-07-01 20:24:00,
2013-07-01 15:30:00,80.6,55.4,30.07,NNE,24,0.0,0.0,42,0.00,,,0.00,Wunderground v.1.15,2013-07-01 20:30:00,
2013-07-01 15:36:00,80.7,56.1,30.07,NE,46,0.0,0.0,43,0.00,,,0.00,Wunderground v.1.15,2013-07-01 20:36:00,
2013-07-01 15:42:00,80.6,55.4,30.07,ENE,57,0.0,0.0,42,0.00,,,0.00,Wunderground v.1.15,2013-07-01 20:42:00,
2013-07-01 15:48:00,80.5,54.0,30.07,NNE,13,0.0,0.0,40,0.00,,,0.00,Wunderground v.1.15,2013-07-01 20:48:00,
2013-07-01 15:54:00,80.4,55.2,30.07,NW,317,0.0,0.0,42,0.00,,,0.00,Wunderground v.1.15,2013-07-01 20:54:00,
2013-07-01 16:00:00,80.5,51.1,30.07,NE,46,0.0,0.0,36,0.00,,,0.00,Wunderground v.1.15,2013-07-01 21:00:00,
2013-07-01 16:05:00,80.6,54.7,30.07,NE,40,0.0,0.0,41,0.00,,,0.00,Wunderground v.1.15,2013-07-01 21:05:00,
2013-07-01 16:11:00,80.6,51.2,30.06,North,360,0.0,0.0,36,0.00,,,0.00,Wunderground v.1.15,2013-07-01 21:11:00,
2013-07-01 16:17:00,80.6,54.7,30.06,NNW,344,0.0,0.0,41,0.00,,,0.00,Wunderground v.1.15,2013-07-01 21:17:00,
2013-07-01 16:23:00,80.5,56.6,30.06,NE,42,0.0,0.0,44,0.00,,,0.00,Wunderground v.1.15,2013-07-01 21:23:00,
2013-07-01 16:29:00,80.5,55.9,30.06,ENE,61,0.0,0.0,43,0.00,,,0.00,Wunderground v.1.15,2013-07-01 21:29:00,
2013-07-01 16:35:00,81.0,51.5,30.06,North,11,0.0,0.0,36,0.00,,,0.00,Wunderground v.1.15,2013-07-01 21:35:00,
2013-07-01 16:41:00,81.0,53.7,30.06,NNE,27,0.0,0.0,39,0.00,,,0.00,Wunderground v.1.15,2013-07-01 21:41:00,
2013-07-01 16:47:00,80.7,54.8,30.06,NE,38,0.0,0.0,41,0.00,,,0.00,Wunderground v.1.15,2013-07-01 21:47:00,
2013-07-01 16:52:00,80.8,53.5,30.06,NE,37,0.0,0.0,39,0.00,,,0.00,Wunderground v.1.15,2013-07-01 21:52:00,
2013-07-01 16:58:00,80.9,52.9,30.06,NNE,22,0.0,0.0,38,0.00,,,0.00,Wunderground v.1.15,2013-07-01 21:58:00,
2013-07-01 17:04:00,81.0,54.4,30.06,NE,53,0.0,0.0,40,0.00,,,0.00,Wunderground v.1.15,2013-07-01 22:04:00,
2013-07-01 17:10:00,80.9,55.0,30.06,NE,41,0.0,0.0,41,0.00,,,0.00,Wunderground v.1.15,2013-07-01 22:10:00,
2013-07-01 17:16:00,80.9,55.7,30.06,NE,42,0.0,0.0,42,0.00,,,0.00,Wunderground v.1.15,2013-07-01 22:16:00,
2013-07-01 17:21:00,80.6,52.6,30.06,NNE,32,0.0,0.0,38,0.00,,,0.00,Wunderground v.1.15,2013-07-01 22:21:00,
2013-07-01 17:27:00,80.5,53.3,30.06,NNE,12,0.0,0.0,39,0.00,,,0.00,Wunderground v.1.15,2013-07-01 22:27:00,
2013-07-01 17:33:00,79.7,52.5,30.06,NE,39,0.0,0.0,39,0.00,,,0.00,Wunderground v.1.15,2013-07-01 22:33:00,
2013-07-01 17:39:00,79.3,54.2,30.06,NE,50,0.0,0.0,42,0.00,,,0.00,Wunderground v.1.15,2013-07-01 22:39:00,
2013-07-01 17:45:00,79.3,52.9,30.06,NE,40,0.0,0.0,40,0.00,,,0.00,Wunderground v.1.15,2013-07-01 22:45:00,
2013-07-01 17:50:00,79.8,52.6,30.06,NE,43,0.0,0.0,39,0.00,,,0.00,Wunderground v.1.15,2013-07-01 22:50:00,
2013-07-01 17:56:00,80.2,53.0,30.06,NNW,348,0.0,0.0,39,0.00,,,0.00,Wunderground v.1.15,2013-07-01 22:56:00,
2013-07-01 18:01:00,80.1,54.3,30.06,NE,53,0.0,0.0,41,0.00,,,0.00,Wunderground v.1.15,2013-07-01 23:01:00,
2013-07-01 18:07:00,80.1,52.2,30.06,ENE,62,0.0,0.0,38,0.00,,,0.00,Wunderground v.1.15,2013-07-01 23:07:00,
2013-07-01 18:13:00,80.2,52.3,30.06,North,5,0.0,0.0,38,0.00,,,0.00,Wunderground v.1.15,2013-07-01 23:13:00,
2013-07-01 18:18:00,80.1,55.6,30.06,NNE,20,0.0,0.0,43,0.00,,,0.00,Wunderground v.1.15,2013-07-01 23:18:00,
2013-07-01 18:24:00,79.8,52.6,30.06,NNE,26,0.0,0.0,39,0.00,,,0.00,Wunderground v.1.15,2013-07-01 23:24:00,
2013-07-01 18:29:00,79.8,54.0,30.06,NNE,30,0.0,0.0,41,0.00,,,0.00,Wunderground v.1.15,2013-07-01 23:29:00,
2013-07-01 18:35:00,79.6,52.5,30.06,NNE,26,0.0,0.0,39,0.00,,,0.00,Wunderground v.1.15,2013-07-01 23:35:00,
2013-07-01 18:41:00,79.5,54.4,30.06,NE,38,0.0,0.0,42,0.00,,,0.00,Wunderground v.1.15,2013-07-01 23:41:00,
2013-07-01 18:47:00,79.3,52.9,30.06,NE,46,0.0,0.0,40,0.00,,,0.00,Wunderground v.1.15,2013-07-01 23:47:00,
2013-07-01 18:52:00,79.2,52.8,30.06,NNE,13,0.0,0.0,40,0.00,,,0.00,Wunderground v.1.15,2013-07-01 23:52:00,
2013-07-01 18:58:00,79.2,55.4,30.06,ENE,71,0.0,0.0,44,0.00,,,0.00,Wunderground v.1.15,2013-07-01 23:58:00,
2013-07-01 19:04:00,79.5,55.7,30.07,ENE,73,0.0,0.0,44,0.00,,,0.00,Wunderground v.1.15,2013-07-02 00:04:00,
2013-07-01 19:10:00,79.2,56.6,30.07,East,80,0.0,0.0,46,0.00,,,0.00,Wunderground v.1.15,2013-07-02 00:10:00,
2013-07-01 19:16:00,78.8,56.9,30.07,NE,52,0.0,0.0,47,0.00,,,0.00,Wunderground v.1.15,2013-07-02 00:16:00,
2013-07-01 19:21:00,78.4,56.5,30.07,ENE,59,0.0,0.0,47,0.00,,,0.00,Wunderground v.1.15,2013-07-02 00:21:00,
2013-07-01 19:27:00,77.5,57.4,30.07,ENE,58,0.0,0.0,50,0.00,,,0.00,Wunderground v.1.15,2013-07-02 00:27:00,
2013-07-01 19:32:00,77.3,58.3,30.07,ENE,75,0.0,0.0,52,0.00,,,0.00,Wunderground v.1.15,2013-07-02 00:32:00,
2013-07-01 19:38:00,77.1,58.6,30.07,East,90,0.0,0.0,53,0.00,,,0.00,Wunderground v.1.15,2013-07-02 00:38:00,
2013-07-01 19:44:00,76.8,58.4,30.07,ENE,74,0.0,0.0,53,0.00,,,0.00,Wunderground v.1.15,2013-07-02 00:44:00,
2013-07-01 19:50:00,76.1,57.7,30.07,NE,38,0.0,0.0,53,0.00,,,0.00,Wunderground v.1.15,2013-07-02 00:50:00,
2013-07-01 19:55:00,75.7,57.9,30.07,ENE,64,0.0,0.0,54,0.00,,,0.00,Wunderground v.1.15,2013-07-02 00:55:00,
2013-07-01 20:02:00,75.3,58.0,30.07,NE,53,0.0,0.0,55,0.00,,,0.00,Wunderground v.1.15,2013-07-02 01:02:00,
2013-07-01 20:07:00,74.9,58.1,30.07,ENE,78,0.0,0.0,56,0.00,,,0.00,Wunderground v.1.15,2013-07-02 01:07:00,
2013-07-01 20:13:00,74.5,57.8,30.07,East,88,0.0,0.0,56,0.00,,,0.00,Wunderground v.1.15,2013-07-02 01:13:00,
2013-07-01 20:18:00,74.2,58.0,30.07,ENE,71,0.0,0.0,57,0.00,,,0.00,Wunderground v.1.15,2013-07-02 01:18:00,
2013-07-01 20:24:00,73.8,58.6,30.07,NE,55,0.0,0.0,59,0.00,,,0.00,Wunderground v.1.15,2013-07-02 01:24:00,
2013-07-01 20:30:00,73.4,58.2,30.07,ENE,69,0.0,0.0,59,0.00,,,0.00,Wunderground v.1.15,2013-07-02 01:30:00,
2013-07-01 20:36:00,72.8,58.6,30.07,ENE,65,0.0,0.0,61,0.00,,,0.00,Wunderground v.1.15,2013-07-02 01:36:00,
2013-07-01 20:42:00,72.4,57.7,30.07,ENE,65,0.0,0.0,60,0.00,,,0.00,Wunderground v.1.15,2013-07-02 01:42:00,
2013-07-01 20:48:00,72.0,57.8,30.07,ENE,57,0.0,0.0,61,0.00,,,0.00,Wunderground v.1.15,2013-07-02 01:48:00,
2013-07-01 20:54:00,71.6,57.9,30.07,ENE,69,0.0,0.0,62,0.00,,,0.00,Wunderground v.1.15,2013-07-02 01:54:00,
2013-07-01 20:59:00,71.3,58.1,30.07,NE,55,0.0,0.0,63,0.00,,,0.00,Wunderground v.1.15,2013-07-02 01:59:00,
2013-07-01 21:05:00,70.9,58.5,30.08,NE,56,0.0,0.0,65,0.00,,,0.00,Wunderground v.1.15,2013-07-02 02:05:00,
2013-07-01 21:11:00,70.4,58.5,30.08,NE,46,0.0,0.0,66,0.00,,,0.00,Wunderground v.1.15,2013-07-02 02:11:00,
2013-07-01 21:17:00,69.8,58.8,30.08,NE,47,0.0,0.0,68,0.00,,,0.00,Wunderground v.1.15,2013-07-02 02:17:00,
2013-07-01 21:18:00,69.7,58.7,30.08,NE,42,0.0,0.0,68,0.00,,,0.00,Wunderground v.1.15,2013-07-02 02:18:00,
2013-07-01 21:24:00,69.2,58.6,30.08,ENE,69,0.0,0.0,69,0.00,,,0.00,Wunderground v.1.15,2013-07-02 02:24:00,
2013-07-01 21:30:00,68.9,58.3,30.08,ENE,67,0.0,0.0,69,0.00,,,0.00,Wunderground v.1.15,2013-07-02 02:30:00,
2013-07-01 21:36:00,68.9,58.7,30.08,East,92,0.0,0.0,70,0.00,,,0.00,Wunderground v.1.15,2013-07-02 02:36:00,
2013-07-01 21:41:00,68.8,58.2,30.08,East,80,0.0,0.0,69,0.00,,,0.00,Wunderground v.1.15,2013-07-02 02:41:00,
2013-07-01 21:47:00,68.8,58.6,30.09,ENE,78,0.0,0.0,70,0.00,,,0.00,Wunderground v.1.15,2013-07-02 02:47:00,
2013-07-01 21:53:00,68.6,58.4,30.09,East,98,0.0,0.0,70,0.00,,,0.00,Wunderground v.1.15,2013-07-02 02:53:00,
2013-07-01 21:58:00,68.5,58.3,30.09,ENE,69,0.0,0.0,70,0.00,,,0.00,Wunderground v.1.15,2013-07-02 02:58:00,
2013-07-01 22:04:00,68.3,58.5,30.09,ENE,66,0.0,0.0,71,0.00,,,0.00,Wunderground v.1.15,2013-07-02 03:04:00,
2013-07-01 22:10:00,68.0,58.6,30.09,ENE,60,0.0,0.0,72,0.00,,,0.00,Wunderground v.1.15,2013-07-02 03:10:00,
2013-07-01 22:16:00,67.7,58.7,30.09,ENE,72,0.0,0.0,73,0.00,,,0.00,Wunderground v.1.15,2013-07-02 03:16:00,
2013-07-01 22:22:00,67.5,58.9,30.09,East,96,0.0,0.0,74,0.00,,,0.00,Wunderground v.1.15,2013-07-02 03:22:00,
2013-07-01 22:28:00,67.2,58.6,30.09,East,83,0.0,0.0,74,0.00,,,0.00,Wunderground v.1.15,2013-07-02 03:28:00,
2013-07-01 22:34:00,66.9,58.3,30.09,East,100,0.0,0.0,74,0.00,,,0.00,Wunderground v.1.15,2013-07-02 03:34:00,
2013-07-01 22:39:00,66.8,58.6,30.09,ENE,78,0.0,0.0,75,0.00,,,0.00,Wunderground v.1.15,2013-07-02 03:39:00,
2013-07-01 22:45:00,66.6,58.4,30.08,ESE,104,0.0,0.0,75,0.00,,,0.00,Wunderground v.1.15,2013-07-02 03:45:00,
2013-07-01 22:51:00,66.4,58.2,30.09,East,88,0.0,0.0,75,0.00,,,0.00,Wunderground v.1.15,2013-07-02 03:51:00,
2013-07-01 22:57:00,66.2,58.0,30.08,East,101,0.0,0.0,75,0.00,,,0.00,Wunderground v.1.15,2013-07-02 03:57:00,
2013-07-01 23:01:00,66.1,57.9,30.08,East,97,0.0,0.0,75,0.00,,,0.00,Wunderground v.1.15,2013-07-02 04:01:00,
2013-07-01 23:03:00,66.0,58.2,30.08,East,97,0.0,0.0,76,0.00,,,0.00,Wunderground v.1.15,2013-07-02 04:03:00,
2013-07-01 23:04:00,66.0,58.2,30.08,ESE,103,0.0,0.0,76,0.00,,,0.00,Wunderground v.1.15,2013-07-02 04:04:00,
2013-07-01 23:05:00,65.9,58.1,30.08,East,91,0.0,0.0,76,0.00,,,0.00,Wunderground v.1.15,2013-07-02 04:05:00,
2013-07-01 23:07:00,65.9,58.1,30.08,East,91,0.0,0.0,76,0.00,,,0.00,Wunderground v.1.15,2013-07-02 04:07:00,
2013-07-01 23:12:00,65.7,57.9,30.08,East,91,0.0,0.0,76,0.00,,,0.00,Wunderground v.1.15,2013-07-02 04:12:00,
2013-07-01 23:18:00,65.5,58.1,30.08,East,86,0.0,0.0,77,0.00,,,0.00,Wunderground v.1.15,2013-07-02 04:18:00,
2013-07-01 23:24:00,65.2,57.8,30.09,East,84,0.0,0.0,77,0.00,,,0.00,Wunderground v.1.15,2013-07-02 04:24:00,
2013-07-01 23:30:00,65.0,58.0,30.09,ENE,76,0.0,0.0,78,0.00,,,0.00,Wunderground v.1.15,2013-07-02 04:30:00,
2013-07-01 23:35:00,64.9,57.9,30.09,ENE,76,0.0,0.0,78,0.00,,,0.00,Wunderground v.1.15,2013-07-02 04:35:00,
2013-07-01 23:40:00,64.7,58.0,30.09,ENE,76,0.0,0.0,79,0.00,,,0.00,Wunderground v.1.15,2013-07-02 04:40:00,
2013-07-01 23:46:00,64.3,58.0,30.08,ENE,78,0.0,0.0,80,0.00,,,0.00,Wunderground v.1.15,2013-07-02 04:46:00,
2013-07-01 23:52:00,64.0,57.7,30.08,ENE,78,0.0,0.0,80,0.00,,,0.00,Wunderground v.1.15,2013-07-02 04:52:00,
2013-07-01 23:58:00,63.7,58.1,30.09,ENE,78,0.0,0.0,82,0.00,,,0.00,Wunderground v.1.15,2013-07-02 04:58:00,